This demonstration page uses our WeatherBlox Daily Observations layout. Learn more.

Left ArrowRight Arrow

Hourly Observations for May 20, 2016

Temp ( °F °C ) Dew Point ( °F °C ) Humidity (%) Winds ( mph kmh ) Pressure ( in mb ) Visibility ( mi km ) Precip ( " mm )
12:54 am 00:54 Cloudy 54 12.2 47 8.3 77 77 S 7 11 30.03 1017 10 16 0.00 0.00
1:54 am 01:54 Cloudy 55 12.8 48 8.9 77 77 S 3 6 30.02 1017 10 16 0.00 0.00
2:54 am 02:54 Cloudy 54 12.2 48 8.9 80 80 S 3 6 30.01 1016 10 16 0.00 0.00
3:54 am 03:54 Cloudy 54 12.2 48 8.9 80 80 SSE 5 7 30.02 1017 10 16 0.00 0.00
4:54 am 04:54 Cloudy 54 12.2 49 9.4 83 83 S 6 9 30.03 1017 10 16 0.00 0.00
5:54 am 05:54 Cloudy 56 13.3 49 9.4 77 77 SSE 12 19 30.04 1017 10 16 0.00 0.00
6:54 am 06:54 Cloudy 55 12.8 49 9.4 80 80 SSE 10 17 30.05 1018 10 16 0.00 0.00
7:17 am 07:17 Cloudy with Light Rain 54 12.2 51 10.6 90 90 SSE 10 17 30.06 1018 3 5 0.00 0.03
7:54 am 07:54 Cloudy 55 12.8 52 11.1 90 90 SE 7 11 30.06 1018 7 11 0.00 0.03
8:01 am 08:01 Cloudy 55 12.8 52 11.1 90 90 SE 6 9 30.06 1018 7 11 0.00 0.00
8:11 am 08:11 Cloudy 55 13 52 11 88 88 SE 7 11 30.06 1018 8 13 0.00 0.00
8:54 am 08:54 Cloudy 57 13.9 52 11.1 83 83 SE 7 11 30.07 1018 9 14 0.00 0.00
9:32 am 09:32 Cloudy 57 14 52 11 82 82 S 9 15 30.09 1019 10 16 0.00 0.00
9:41 am 09:41 Cloudy 58 14.4 51 10.6 78 78 ESE 8 13 30.09 1019 10 16 0.00 0.00
9:54 am 09:54 Cloudy 59 15 51 10.6 75 75 SE 10 17 30.07 1018 10 16 0.00 0.00
10:16 am 10:16 Cloudy 59 15 51 10.6 75 75 SE 10 17 30.06 1018 10 16 0.00 0.00
10:24 am 10:24 Cloudy 59 15 52 11 77 77 SE 13 20 30.06 1018 10 16 0.00 0.00
10:39 am 10:39 Cloudy 59 15 51 10.6 75 75 SE 12 19 30.06 1018 10 16 0.00 0.00
10:49 am 10:49 Cloudy 59 15 52 11 77 77 SE 12 19 30.06 1018 10 16 0.00 0.00
10:54 am 10:54 Cloudy 59 15 52 11.1 78 78 SE 10 17 30.06 1018 10 16 0.00 0.00
11:54 am 11:54 Cloudy 59 15 52 11.1 78 78 SSE 13 20 30.07 1018 10 16 0.00 0.00
12:01 pm 12:01 Cloudy 59 15 52 11.1 78 78 SSE 13 20 30.09 1019 10 16 0.00 0.00
12:54 pm 12:54 Cloudy with Mist and Fog 57 13.9 53 11.7 87 87 SE 12 19 30.08 1019 5 8 0.00 0.00
1:30 pm 13:30 Cloudy 60 15.6 53 11.7 78 78 S 12 19 30.09 1019 10 16 0.00 0.00
1:54 pm 13:54 Cloudy 62 16.7 53 11.7 73 73 S 14 22 30.06 1018 10 16 0.00 0.00
2:54 pm 14:54 Cloudy 63 17.2 50 10 63 63 SSE 15 24 30.06 1018 10 16 0.00 0.00
3:54 pm 15:54 Cloudy 65 18.3 51 10.6 61 61 S 13 20 30.04 1017 10 16 0.00 0.00
4:54 pm 16:54 Cloudy 64 17.8 52 11.1 65 65 SE 12 19 30.04 1017 10 16 0.00 0.00
5:54 pm 17:54 Cloudy 65 18.3 52 11.1 63 63 ESE 9 15 30.04 1017 10 16 0.00 0.00
6:54 pm 18:54 Cloudy 65 18.3 52 11.1 63 63 SSE 8 13 30.04 1017 10 16 0.00 0.00
7:54 pm 19:54 Cloudy 64 17.8 51 10.6 63 63 SSE 8 13 30.05 1018 10 16 0.00 0.00
8:54 pm 20:54 Cloudy 62 16.7 51 10.6 67 67 SE 7 11 30.07 1018 10 16 0.00 0.00
9:54 pm 21:54 Cloudy 61 16.1 51 10.6 70 70 ESE 3 6 30.09 1019 10 16 0.00 0.00
10:54 pm 22:54 Partly Cloudy 60 15.6 50 10 70 70 SE 8 13 30.10 1019 10 16 0.00 0.00
11:54 pm 23:54 Clear 57 13.9 50 10 78 78 SSE 5 7 30.10 1019 10 16 0.00 0.00

Powered by AerisWeather